This is the latest recevied weather packets stored in our database for station/object KQ7A. If no packets are shown the sender has not sent any weather packets the latest 10 day(s).
| Time | Temp. | Humidity | Pressure | Rain* | Wind** | Luminosity | Snow |
|---|---|---|---|---|---|---|---|
| 1778102914 | 23.33° C | 28% | 1021.5 hPa | 0 mm | - | 715 W/m² | - |
| 1778102609 | 23.33° C | 25% | 1021.9 hPa | 0 mm | - | 718 W/m² | - |
| 1778102299 | 23.89° C | 25% | 1021.8 hPa | 0 mm | - | 718 W/m² | - |
| 1778101995 | 23.33° C | 23% | 1021.6 hPa | 0 mm | - | 717 W/m² | - |
| 1778101693 | 22.78° C | 27% | 1022 hPa | 0 mm | - | 723 W/m² | - |
| 1778101390 | 23.33° C | 27% | 1021.9 hPa | 0 mm | - | 742 W/m² | - |
| 1778101087 | 23.33° C | 38% | 1021.8 hPa | 0 mm | - | 747 W/m² | - |
| 1778100783 | 22.78° C | 30% | 1022 hPa | 0 mm | - | 743 W/m² | - |
| 1778100479 | 22.78° C | 30% | 1021.9 hPa | 0 mm | - | 745 W/m² | - |
| 1778100177 | 22.22° C | 28% | 1022 hPa | 0 mm | - | 746 W/m² | - |
| 1778099875 | 22.22° C | 27% | 1021.9 hPa | 0 mm | - | 750 W/m² | - |
| 1778099572 | 21.67° C | 37% | 1022 hPa | 0 mm | - | 753 W/m² | - |
| 1778099268 | 22.22° C | 33% | 1022.1 hPa | 0 mm | - | 757 W/m² | - |
| 1778098965 | 22.22° C | 35% | 1022.1 hPa | 0 mm | - | 758 W/m² | - |
| 1778098662 | 21.67° C | 33% | 1022.1 hPa | 0 mm | - | 756 W/m² | - |
| 1778098359 | 21.67° C | 38% | 1022.4 hPa | 0 mm | - | 754 W/m² | - |
| 1778098056 | 22.22° C | 35% | 1022 hPa | 0 mm | - | 755 W/m² | - |
| 1778097752 | 22.22° C | 34% | 1022.2 hPa | 0 mm | - | 747 W/m² | - |
| 1778097448 | 22.22° C | 38% | 1022.3 hPa | 0 mm | - | 749 W/m² | - |
| 1778097145 | 21.67° C | 35% | 1022.2 hPa | 0 mm | - | 757 W/m² | - |
| 1778096843 | 21.11° C | 36% | 1022.1 hPa | 0 mm | - | 771 W/m² | - |
| 1778096539 | 21.11° C | 48% | 1022.3 hPa | 0 mm | - | 782 W/m² | - |
| 1778096237 | 20.56° C | 36% | 1022.6 hPa | 0 mm | - | 785 W/m² | - |
| 1778095934 | 20.56° C | 38% | 1022.4 hPa | 0 mm | - | 784 W/m² | - |
| 1778095629 | 20.56° C | 35% | 1022.2 hPa | 0 mm | - | 783 W/m² | - |
* Rain latest hour (hover to see other rain measurements)
** Current wind speed in m/s (hover to see current wind gust speed)